User: anonymous   Login
Location: Caltech
(34.1382°N, 118.1253°W)
Time: 12:26:16
(UTC-07:00)
Language:

KITSAT 1 - Orbit

View from above orbital plane
View from above orbital plane
View from above satellite
View from above satellite

Ground track
Ground track

The orbit data is extracted from the following two-line orbital elements,

1 22077U 92052B   15212.48405728 -.00000052  00000-0  40437-4 0  9995
2 22077 066.0868 324.9579 0013143 302.9096 125.2723 12.86506667 79054
Epoch (UTC): 31 July 2015 11:37:02
Eccentricity: 0.0013143
inclination: 66.0868°
perigee height: 1305 km
apogee height: 1325 km
right ascension of ascending node: 324.9579°
argument of perigee: 302.9096°
revolutions per day: 12.86506667
mean anomaly at epoch: 125.2723°
orbit number at epoch: 7905

The dashed part of the orbit path shows where the satellite is in the earth's shadow,  

DLR